Location: Unspecified
(54.1780°N, 0.0000°E)
Time: 19:07:37
(UTC+00:00)

Vanguard 2 - Pass Details

Date: 22 June 2019
Orbit: 553 x 2938 km, 32.9° (Epoch: 19 July)

Event Time Altitude Azimuth Distance (km) Brightness Sun altitude
Rises 12:06:21 0° 245° (WSW) 4,153 11.5 59.2°
Reaches altitude 10° 12:10:09 10° 225° (SW) 3,584 11.4 59.2°
Maximum altitude 12:15:40 17° 190° (S) 3,594 11.8 59.2°
Drops below altitude 10° 12:22:39 10° 156° (SSE) 4,743 12.1 59.0°
Sets 12:29:04 0° 140° (SE) 6,202 12.4 58.8°
